Temp
-9 -10 -10 -10 -12 -13 -13 -13 -13 -13 -13 -13 -13 -13 -13 -13 -13 -13 -13 -13 -13 -13 -12 -12 -11 -11 -11 -10 -10 -10 -10 -10 -10 -10 -10 -9 -9 -9 -8 -8 -7 -7 -7 -6 -6 -6 -5 -1 -2 -3 -2 -1 -1 -1
-10 -11 -11 -11 -13 -14 -14 -14 -14 -14 -14 -14 -13 -13 -13 -13 -13 -13 -13 -14 -14 -14 -14 -13 -12 -12 -11 -12 -12 -11 -11 -11 -10 -10 -9 -10 -9 -9 -7 -8 -6 -8 -7 -7 -6 -5 -3 -3 -3 -2 -2 -2 -1 -1
-12 -12 -13 -14 -15 -15 -14 -15 -14 -14 -14 -14 -14 -14 -14 -14 -14 -14 -14 -14 -14 -14 -13 -13 -12 -12 -12 -12 -12 -12 -10 -10 -9 -10 -11 -10 -11 -8 -8 -8 -7 -7 -7 -7 -7 -6 -5 -3 -3 -3 -2 -2 -2 -1
-13 -14 -15 -15 -15 -15 -15 -15 -15 -15 -14 -14 -14 -14 -14 -14 -14 -14 -14 -14 -14 -15 -14 -13 -12 -11 -12 -12 -12 -12 -11 -12 -11 -11 -12 -12 -11 -9 -9 -8 -8 -8 -7 -6 -6 -6 -5 -5 -4 -3 -2 -2 -2 -1
-15 -15 -15 -15 -15 -15 -15 -15 -15 -15 -15 -15 -15 -14 -15 -15 -15 -15 -15 -14 -14 -15 -14 -14 -13 -11 -12 -12 -11 -11 -11 -11 -11 -12 -11 -10 -9 -11 -9 -9 -8 -7 -7 -7 -6 -4 -5 -4 -4 -3 -3 -2 -1 -1
-15 -15 -16 -15 -16 -15 -15 -15 -15 -15 -15 -15 -15 -15 -15 -15 -15 -15 -15 -14 -14 -15 -15 -15 -13 -12 -12 -12 -11 -11 -11 -11 -11 -10 -12 -11 -10 -10 -9 -9 -5 -7 -6 -6 -6 -6 -5 -5 -4 -4 -2 -2 -2 -1
-16 -16 -16 -16 -16 -16 -16 -15 -15 -15 -15 -15 -15 -15 -15 -15 -15 -15 -15 -14 -14 -15 -15 -14 -15 -13 -13 -12 -11 -11 -10 -11 -10 -11 -11 -10 -9 -10 -9 -8 -7 -6 -6 -7 -6 -7 -5 -5 -4 -4 -3 -2 -2 -1
-16 -16 -16 -16 -16 -16 -16 -15 -15 -15 -15 -15 -15 -15 -15 -15 -15 -15 -14 -15 -15 -16 -16 -16 -15 -14 -13 -12 -11 -10 -10 -10 -10 -10 -10 -9 -9 -10 -9 -7 -7 -6 -6 -7 -7 -5 -5 -5 -4 -4 -3 -3 -2 -2
-16 -16 -16 -16 -16 -16 -16 -16 -16 -15 -15 -15 -15 -15 -15 -15 -15 -14 -15 -15 -16 -16 -16 -16 -15 -14 -12 -12 -12 -11 -10 -11 -10 -9 -10 -10 -9 -8 -7 -7 -6 -6 -6 -7 -6 -7 -6 -5 -4 -3 -3 -3 -2 -1
-16 -16 -16 -16 -16 -16 -16 -16 -16 -15 -15 -15 -15 -16 -15 -15 -15 -16 -15 -15 -15 -15 -15 -15 -14 -14 -13 -12 -12 -12 -12 -11 -9 -9 -9 -9 -9 -7 -7 -6 -6 -6 -6 -6 -6 -5 -5 -4 -3 -3 -2 -2 -2 -1
-16 -16 -16 -16 -16 -16 -16 -16 -15 -16 -16 -16 -16 -16 -16 -16 -16 -16 -16 -15 -15 -15 -14 -13 -12 -11 -11 -12 -12 -13 -12 -10 -9 -8 -9 -9 -7 -5 -5 -5 -5 -7 -7 -6 -5 -5 -5 -4 -3 -3 -3 -2 -2 -1
-17 -17 -17 -16 -16 -16 -16 -16 -15 -16 -16 -16 -16 -16 -16 -16 -16 -16 -16 -15 -14 -14 -13 -12 -11 -11 -11 -11 -13 -12 -11 -11 -8 -8 -8 -7 -4 -4 -4 -4 -5 -6 -6 -5 -5 -5 -4 -4 -4 -4 -3 -3 -2 -2
-17 -17 -16 -16 -16 -16 -16 -16 -16 -16 -16 -16 -16 -16 -16 -16 -16 -16 -15 -14 -14 -13 -13 -12 -12 -10 -10 -11 -11 -11 -9 -8 -8 -8 -7 -5 -5 -5 -5 -4 -5 -5 -6 -5 -5 -5 -4 -3 -3 -3 -3 -2 -2 -2
-17 -17 -16 -16 -16 -16 -16 -16 -16 -16 -16 -16 -16 -16 -16 -15 -15 -15 -15 -15 -14 -14 -14 -13 -11 -11 -11 -10 -10 -9 -8 -8 -8 -8 -6 -5 -5 -5 -5 -5 -6 -6 -5 -5 -5 -4 -4 -3 -3 -2 -2 -2 -2 -2
-16 -16 -16 -16 -16 -16 -16 -16 -16 -16 -16 -16 -16 -16 -15 -14 -14 -14 -15 -15 -14 -14 -13 -12 -11 -10 -11 -9 -9 -8 -8 -8 -8 -6 -5 -5 -6 -6 -6 -5 -6 -6 -6 -5 -4 -4 -3 -3 -3 -3 -2 -2 -2 -2
-16 -16 -16 -16 -16 -16 -16 -16 -16 -16 -17 -16 -16 -15 -15 -15 -14 -15 -15 -15 -15 -13 -12 -11 -11 -10 -10 -9 -8 -8 -8 -7 -6 -6 -6 -6 -7 -7 -6 -5 -5 -5 -5 -5 -4 -3 -3 -3 -3 -3 -3 -3 -3 -3
-16 -16 -16 -15 -15 -16 -16 -16 -16 -17 -16 -16 -15 -15 -15 -15 -15 -14 -14 -14 -15 -14 -13 -12 -11 -9 -8 -9 -8 -8 -7 -6 -6 -6 -7 -7 -7 -6 -6 -6 -6 -6 -5 -5 -5 -4 -4 -4 -4 -3 -3 -3 -4 -4
-15 -15 -15 -15 -16 -16 -17 -16 -17 -17 -16 -16 -16 -15 -16 -15 -15 -14 -13 -14 -14 -14 -13 -12 -12 -11 -9 -8 -8 -8 -7 -7 -7 -7 -7 -7 -7 -6 -6 -6 -6 -6 -6 -6 -5 -5 -5 -4 -4 -4 -4 -5 -5 -5
-16 -16 -16 -16 -16 -17 -17 -17 -17 -17 -17 -16 -16 -16 -16 -16 -14 -13 -13 -13 -14 -13 -13 -12 -11 -11 -10 -9 -8 -8 -7 -8 -8 -8 -8 -8 -8 -8 -7 -7 -7 -7 -7 -6 -6 -6 -6 -5 -5 -5 -5 -5 -6 -6
-15 -16 -16 -16 -17 -17 -18 -17 -17 -17 -17 -16 -16 -16 -16 -15 -14 -13 -13 -13 -13 -13 -13 -12 -11 -11 -10 -9 -9 -9 -8 -8 -9 -9 -9 -9 -8 -8 -8 -8 -7 -7 -7 -7 -7 -7 -6 -6 -6 -6 -6 -6 -7 -6
-16 -16 -16 -17 -17 -17 -17 -17 -17 -17 -17 -16 -16 -16 -15 -14 -14 -13 -13 -13 -13 -13 -13 -12 -11 -11 -10 -10 -9 -9 -9 -10 -10 -10 -9 -9 -9 -9 -8 -8 -8 -8 -7 -7 -7 -7 -7 -7 -7 -7 -7 -7 -7 -7
-16 -16 -16 -17 -17 -17 -17 -17 -17 -17 -16 -16 -16 -15 -15 -15 -14 -14 -14 -13 -13 -12 -12 -12 -12 -11 -11 -11 -11 -10 -10 -10 -10 -10 -10 -10 -10 -9 -9 -9 -8 -8 -8 -8 -8 -7 -7 -7 -7 -7 -7 -7 -7 -7
-16 -16 -16 -17 -17 -17 -17 -17 -17 -16 -16 -16 -16 -15 -15 -15 -15 -15 -14 -14 -14 -13 -13 -12 -12 -12 -12 -12 -12 -11 -11 -11 -11 -10 -10 -10 -10 -9 -9 -9 -9 -8 -8 -8 -8 -8 -7 -7 -7 -7 -7 -7 -7 -7
-16 -16 -17 -17 -17 -17 -17 -17 -17 -17 -16 -16 -16 -16 -16 -15 -15 -15 -15 -15 -15 -14 -14 -14 -13 -13 -13 -13 -12 -12 -12 -12 -11 -11 -10 -10 -10 -9 -9 -8 -9 -9 -8 -7 -7 -7 -7 -7 -7 -7 -7 -8 -8 -8
-16 -16 -16 -17 -17 -17 -17 -17 -17 -17 -16 -16 -16 -16 -16 -16 -16 -16 -15 -15 -15 -15 -14 -14 -14 -14 -13 -13 -12 -12 -12 -12 -11 -10 -10 -10 -10 -10 -10 -9 -8 -8 -8 -8 -8 -8 -7 -8 -8 -8 -8 -8 -9 -9
-16 -16 -16 -16 -17 -17 -17 -17 -17 -16 -16 -16 -16 -16 -16 -16 -16 -16 -16 -15 -15 -15 -15 -14 -14 -14 -13 -13 -13 -12 -12 -12 -11 -11 -10 -11 -12 -11 -10 -9 -9 -8 -8 -9 -9 -9 -8 -8 -9 -9 -10 -10 -10 -10
-16 -16 -16 -16 -16 -17 -17 -17 -16 -16 -16 -17 -16 -16 -15 -15 -16 -16 -16 -15 -15 -15 -15 -14 -14 -14 -14 -13 -13 -13 -12 -12 -11 -11 -11 -13 -12 -11 -11 -11 -10 -9 -8 -9 -10 -11 -10 -10 -10 -11 -11 -11 -11 -12
-16 -16 -16 -16 -16 -16 -16 -16 -16 -16 -16 -16 -16 -15 -16 -15 -16 -16 -16 -16 -15 -15 -15 -14 -14 -14 -14 -13 -13 -13 -13 -12 -12 -12 -11 -13 -13 -12 -11 -11 -11 -10 -10 -10 -11 -11 -12 -12 -12 -12 -12 -12 -12 -12
-16 -16 -16 -16 -16 -16 -16 -16 -16 -16 -16 -15 -15 -15 -15 -15 -15 -16 -16 -16 -16 -15 -15 -15 -15 -15 -14 -14 -14 -13 -13 -13 -12 -12 -13 -13 -13 -13 -13 -13 -12 -12 -12 -12 -12 -12 -13 -13 -13 -13 -13 -13 -13 -13
-16 -16 -16 -16 -16 -16 -16 -16 -16 -16 -16 -15 -15 -15 -16 -16 -16 -16 -16 -16 -16 -16 -16 -16 -15 -15 -15 -15 -14 -14 -14 -14 -13 -14 -15 -14 -13 -13 -13 -14 -14 -14 -14 -14 -14 -14 -14 -14 -13 -13 -14 -13 -13 -13
-16 -16 -16 -16 -16 -16 -16 -16 -16 -16 -16 -16 -17 -17 -17 -16 -16 -16 -16 -16 -16 -16 -16 -16 -16 -16 -16 -15 -15 -15 -15 -15 -15 -14 -15 -14 -14 -14 -14 -14 -14 -14 -14 -15 -15 -14 -14 -14 -14 -14 -14 -14 -14 -14
-16 -16 -16 -16 -16 -16 -16 -16 -16 -17 -17 -17 -17 -17 -17 -17 -17 -17 -17 -17 -17 -17 -17 -16 -16 -16 -16 -15 -15 -15 -15 -15 -14 -14 -14 -15 -15 -15 -15 -15 -15 -15 -15 -15 -15 -15 -15 -15 -15 -15 -15 -15 -15 -15
-16 -17 -17 -17 -17 -17 -17 -17 -17 -17 -17 -17 -17 -17 -17 -17 -17 -17 -17 -17 -17 -16 -16 -16 -16 -16 -16 -15 -15 -15 -15 -15 -15 -15 -15 -16 -16 -16 -16 -16 -16 -16 -16 -16 -16 -16 -16 -16 -15 -15 -15 -15 -15 -15
Height
3020 3019 3019 3018 3021 3022 3022 3021 3021 3022 3022 3023 3024 3024 3025 3025 3026 3026 3026 3025 3024 3021 3023 3026 3028 3027 3030 3032 3030 3032 3034 3033 3035 3034 3034 3031 3027 3025 3023 3023 3025 3028 3030 3028 3028 3026 3017 3016 3016 3015 3015 3013 3010 3007
3012 3011 3011 3010 3014 3016 3015 3014 3014 3015 3016 3016 3017 3018 3019 3020 3020 3020 3021 3019 3018 3016 3017 3020 3021 3023 3024 3025 3022 3022 3023 3027 3027 3028 3026 3024 3019 3016 3014 3011 3016 3015 3017 3018 3019 3011 3012 3011 3011 3012 3012 3011 3009 3005
3003 3003 3003 3004 3007 3009 3008 3008 3008 3008 3009 3009 3010 3011 3012 3013 3014 3013 3013 3013 3012 3010 3010 3009 3013 3015 3014 3018 3017 3014 3014 3016 3017 3020 3019 3017 3011 3010 3006 3002 3006 3005 3008 3007 3009 3003 3005 3004 3008 3009 3008 3005 3006 3004
2995 2994 2995 2997 3000 3001 3002 3002 3001 3001 3002 3002 3003 3005 3006 3006 3006 3006 3005 3007 3006 3006 2998 2999 3005 3006 3006 3008 3008 3005 3006 3005 3007 3007 3007 3003 3000 3002 3000 2997 2997 3000 3001 3000 2996 2997 2999 2996 3001 3003 3003 3001 3002 3000
2987 2988 2989 2991 2993 2994 2994 2994 2994 2994 2995 2995 2996 2998 2999 3000 3001 2999 2998 2999 3000 3002 2993 2990 2992 2996 2998 2996 2997 2998 2996 2996 2997 2996 2993 2990 2989 2993 2989 2991 2987 2985 2987 2991 2986 2992 2991 2992 2997 2998 2997 2995 2996 2997
2980 2982 2984 2986 2987 2987 2987 2987 2987 2988 2988 2989 2990 2991 2992 2993 2994 2992 2992 2996 2994 2992 2986 2979 2979 2981 2984 2987 2987 2987 2986 2985 2984 2983 2980 2976 2978 2987 2980 2973 2962 2976 2979 2981 2978 2982 2983 2986 2988 2992 2992 2991 2992 2992
2975 2977 2978 2980 2981 2981 2981 2981 2981 2981 2982 2983 2984 2985 2985 2986 2986 2986 2988 2989 2988 2988 2984 2973 2969 2971 2974 2977 2977 2977 2977 2971 2971 2969 2963 2965 2968 2972 2968 2953 2961 2967 2969 2971 2969 2971 2973 2977 2983 2986 2987 2987 2988 2988
2970 2972 2973 2975 2975 2975 2975 2975 2974 2975 2976 2977 2978 2979 2979 2979 2979 2978 2982 2983 2982 2979 2977 2970 2963 2964 2967 2967 2967 2966 2964 2960 2956 2953 2952 2953 2960 2961 2950 2939 2953 2958 2963 2959 2962 2964 2969 2973 2976 2977 2980 2981 2982 2984
2966 2967 2969 2970 2971 2971 2970 2970 2969 2970 2971 2972 2972 2972 2971 2972 2971 2975 2976 2975 2975 2974 2967 2961 2959 2956 2958 2960 2960 2959 2957 2954 2950 2943 2944 2949 2948 2938 2932 2940 2946 2950 2954 2956 2959 2960 2965 2969 2970 2971 2973 2974 2976 2979
2961 2963 2964 2966 2966 2966 2966 2966 2966 2967 2967 2966 2966 2966 2965 2966 2967 2969 2967 2965 2964 2961 2955 2948 2952 2947 2956 2956 2954 2956 2951 2946 2940 2936 2937 2934 2927 2929 2932 2936 2940 2945 2945 2948 2951 2955 2959 2963 2964 2965 2967 2968 2971 2974
2958 2959 2960 2961 2962 2962 2963 2963 2963 2962 2961 2961 2959 2960 2961 2961 2962 2962 2961 2960 2957 2950 2945 2941 2943 2942 2947 2946 2948 2952 2946 2941 2931 2928 2928 2926 2920 2920 2927 2929 2933 2937 2940 2943 2948 2952 2955 2957 2959 2960 2962 2964 2966 2968
2954 2954 2954 2956 2957 2957 2958 2958 2958 2956 2955 2955 2954 2955 2956 2957 2957 2957 2954 2953 2950 2944 2941 2940 2940 2938 2937 2938 2939 2939 2938 2936 2923 2920 2923 2919 2916 2919 2921 2925 2928 2931 2936 2939 2943 2947 2950 2953 2955 2957 2958 2960 2962 2964
2948 2948 2948 2949 2951 2952 2952 2953 2952 2950 2949 2950 2951 2951 2952 2953 2952 2950 2946 2945 2943 2942 2939 2934 2933 2931 2930 2929 2931 2932 2928 2923 2921 2920 2916 2911 2914 2915 2917 2918 2921 2925 2929 2934 2938 2942 2944 2947 2949 2952 2954 2956 2958 2960
2943 2943 2944 2945 2946 2946 2946 2946 2946 2945 2945 2946 2944 2945 2947 2945 2942 2940 2941 2941 2941 2938 2934 2932 2928 2928 2927 2925 2924 2922 2920 2918 2917 2911 2905 2908 2909 2910 2912 2914 2916 2920 2924 2928 2931 2935 2938 2941 2943 2946 2949 2951 2953 2955
2940 2940 2941 2942 2941 2941 2941 2940 2940 2940 2940 2941 2940 2940 2938 2939 2938 2938 2935 2935 2934 2932 2929 2927 2924 2923 2921 2918 2914 2916 2914 2911 2908 2905 2905 2905 2905 2906 2909 2910 2912 2915 2919 2923 2927 2931 2934 2936 2938 2942 2945 2947 2949 2951
2936 2937 2936 2936 2935 2936 2936 2936 2936 2936 2936 2936 2934 2935 2935 2933 2935 2935 2934 2931 2929 2925 2923 2921 2918 2915 2911 2910 2908 2908 2907 2904 2904 2903 2903 2903 2903 2905 2907 2908 2909 2912 2916 2919 2923 2927 2930 2934 2936 2939 2942 2945 2947 2948
2933 2932 2932 2930 2930 2931 2931 2932 2931 2931 2931 2929 2929 2930 2930 2928 2928 2928 2928 2926 2923 2921 2918 2917 2914 2909 2902 2903 2902 2901 2901 2902 2901 2901 2901 2901 2901 2903 2905 2906 2908 2911 2914 2917 2921 2925 2929 2933 2936 2938 2941 2943 2945 2947
2929 2928 2927 2927 2927 2927 2927 2926 2927 2925 2924 2924 2924 2926 2923 2921 2921 2922 2921 2921 2919 2915 2914 2912 2910 2906 2901 2898 2899 2899 2899 2898 2897 2896 2896 2897 2899 2901 2904 2906 2908 2911 2914 2918 2921 2926 2929 2932 2935 2938 2940 2943 2945 2947
2926 2925 2925 2924 2923 2924 2924 2923 2922 2919 2918 2918 2917 2917 2916 2915 2916 2916 2915 2915 2913 2911 2908 2907 2905 2901 2899 2897 2896 2896 2896 2895 2894 2893 2893 2894 2897 2901 2904 2907 2910 2913 2916 2920 2924 2927 2930 2933 2936 2939 2941 2944 2946 2948
2922 2922 2922 2921 2921 2921 2920 2919 2917 2915 2913 2912 2911 2911 2910 2910 2911 2911 2910 2908 2907 2906 2905 2903 2901 2899 2897 2896 2895 2894 2893 2893 2894 2893 2894 2896 2898 2902 2905 2909 2912 2915 2919 2922 2926 2929 2932 2935 2937 2940 2942 2945 2947 2950
2920 2920 2920 2919 2919 2919 2917 2915 2913 2912 2910 2908 2907 2906 2906 2906 2906 2906 2906 2904 2902 2901 2900 2899 2898 2897 2896 2895 2894 2894 2893 2894 2896 2897 2898 2898 2901 2904 2907 2910 2915 2918 2922 2925 2928 2930 2933 2936 2939 2941 2944 2947 2949 2951
2918 2918 2917 2917 2916 2915 2913 2911 2911 2909 2908 2906 2904 2904 2903 2903 2903 2902 2901 2900 2898 2897 2897 2896 2895 2895 2895 2894 2894 2894 2895 2897 2898 2900 2902 2903 2905 2907 2911 2914 2918 2921 2924 2927 2931 2934 2937 2940 2942 2945 2948 2950 2952 2954
2915 2915 2915 2914 2913 2911 2911 2909 2908 2907 2906 2904 2903 2902 2902 2901 2901 2900 2899 2898 2897 2896 2895 2895 2895 2895 2895 2895 2896 2897 2898 2900 2902 2903 2905 2907 2909 2912 2915 2918 2922 2926 2929 2931 2934 2938 2941 2944 2945 2948 2950 2952 2954 2956
2913 2913 2912 2911 2910 2909 2908 2906 2906 2905 2903 2902 2901 2900 2900 2900 2899 2898 2898 2898 2898 2897 2897 2897 2897 2897 2898 2899 2900 2900 2901 2903 2905 2907 2909 2911 2914 2916 2919 2922 2925 2929 2933 2937 2939 2942 2944 2946 2948 2949 2951 2953 2954 2955
2913 2912 2911 2908 2907 2906 2904 2903 2903 2902 2901 2900 2899 2899 2899 2899 2899 2899 2899 2900 2899 2899 2900 2900 2900 2901 2902 2903 2903 2904 2905 2907 2909 2911 2912 2914 2917 2920 2924 2927 2930 2933 2936 2939 2942 2944 2945 2947 2948 2950 2952 2953 2954 2955
2909 2908 2908 2906 2905 2904 2903 2902 2901 2900 2900 2899 2898 2898 2899 2899 2900 2900 2901 2901 2902 2902 2903 2903 2904 2904 2905 2906 2906 2907 2909 2911 2913 2915 2916 2917 2921 2926 2930 2933 2935 2937 2938 2941 2944 2946 2947 2949 2950 2952 2954 2955 2956 2957
2907 2906 2906 2905 2904 2903 2902 2901 2900 2900 2899 2899 2898 2898 2899 2899 2899 2901 2902 2902 2903 2904 2905 2906 2906 2906 2907 2908 2909 2911 2912 2914 2917 2918 2918 2921 2926 2928 2931 2935 2938 2940 2940 2943 2945 2947 2950 2951 2952 2954 2955 2957 2957 2958
2905 2904 2905 2905 2903 2903 2902 2901 2900 2899 2899 2899 2899 2899 2898 2898 2899 2901 2902 2904 2905 2906 2907 2907 2908 2908 2909 2910 2911 2913 2915 2917 2919 2922 2922 2924 2928 2932 2935 2937 2940 2942 2944 2945 2948 2950 2951 2953 2955 2956 2957 2958 2959 2959
2903 2903 2904 2903 2903 2902 2902 2901 2900 2899 2899 2898 2898 2898 2898 2898 2900 2902 2905 2906 2907 2908 2909 2910 2910 2911 2911 2912 2913 2915 2917 2919 2921 2923 2925 2927 2930 2934 2936 2939 2942 2944 2946 2948 2949 2951 2953 2955 2956 2957 2958 2959 2960 2960
2902 2903 2903 2903 2903 2902 2902 2901 2901 2900 2899 2898 2897 2898 2899 2901 2903 2905 2907 2909 2910 2911 2911 2912 2913 2913 2914 2915 2915 2917 2918 2920 2922 2924 2928 2932 2934 2937 2939 2941 2944 2946 2948 2950 2952 2953 2954 2956 2956 2958 2959 2959 2960 2959
2901 2901 2902 2902 2902 2902 2902 2902 2902 2901 2901 2900 2901 2903 2904 2905 2907 2908 2910 2911 2912 2913 2914 2914 2915 2916 2916 2917 2918 2919 2920 2923 2925 2927 2930 2933 2936 2939 2941 2943 2945 2947 2949 2951 2953 2954 2955 2956 2957 2958 2959 2959 2959 2958
2899 2900 2901 2901 2902 2903 2903 2903 2903 2903 2903 2904 2905 2906 2907 2908 2910 2911 2912 2913 2914 2915 2915 2916 2917 2918 2919 2920 2920 2921 2923 2925 2928 2930 2932 2935 2938 2941 2943 2945 2947 2948 2950 2952 2953 2954 2956 2957 2958 2958 2958 2958 2957 2957
2898 2899 2900 2900 2901 2901 2902 2903 2903 2904 2904 2905 2906 2907 2907 2909 2910 2911 2912 2913 2914 2914 2915 2916 2917 2918 2920 2921 2922 2923 2924 2926 2928 2931 2933 2935 2939 2942 2944 2946 2948 2949 2951 2953 2954 2955 2956 2956 2957 2956 2956 2956 2956 2955
Wind_Speed
22 21 21 21 22 23 25 26 26 24 23 23 20 21 20 18 19 20 19 20 20 24 24 22 21 25 25 25 29 28 26 24 20 22 20 24 25 28 33 36 33 31 23 25 23 20 18 26 11 11 8 12 22 25
23 22 23 20 22 25 24 23 24 25 25 26 26 27 25 24 23 25 24 23 22 25 23 21 19 16 18 19 27 29 30 22 14 14 15 14 22 23 27 30 28 33 33 34 28 25 25 20 21 22 29 29 25 24
23 23 20 15 18 19 17 21 24 24 23 24 25 24 24 25 25 28 28 28 27 29 32 33 25 26 26 18 18 25 27 28 31 32 34 39 32 17 30 40 35 33 23 28 33 42 43 42 34 29 26 27 31 24
23 19 18 20 23 23 23 23 21 21 25 26 24 23 22 20 22 26 30 30 31 30 38 39 30 29 30 21 26 28 24 24 26 30 32 36 41 42 37 21 21 27 30 31 36 38 38 37 34 32 29 35 26 23
18 17 18 19 22 23 25 24 25 25 25 23 26 27 24 21 21 24 26 27 28 29 35 42 39 31 31 29 25 22 30 32 33 35 36 41 43 40 48 49 54 50 44 36 39 32 36 31 25 27 32 26 23 17
16 17 18 18 20 20 22 23 21 20 20 24 23 21 24 24 23 27 27 21 22 22 30 39 43 41 31 25 26 26 23 24 26 40 42 49 46 36 32 44 53 45 40 36 33 37 41 31 27 30 19 10 11 16
16 17 16 17 16 17 17 19 21 20 19 18 18 19 20 21 25 27 28 25 24 22 24 18 23 26 24 22 25 28 28 33 37 40 50 48 47 35 37 56 44 37 30 34 38 31 27 19 23 25 23 21 15 16
12 14 15 14 14 15 17 17 17 16 16 17 17 18 19 20 24 27 22 22 22 28 30 28 34 39 31 29 29 21 16 25 33 36 41 44 38 37 45 52 41 36 32 23 15 21 25 24 20 26 28 26 19 17
15 15 14 12 13 13 12 13 13 14 17 19 19 21 24 26 26 22 22 24 24 27 35 38 41 40 20 12 17 22 17 22 27 33 38 37 38 37 49 40 34 30 32 25 14 12 15 18 19 18 20 16 21 17
13 13 13 13 12 12 10 8 8 10 13 16 17 19 19 21 20 19 20 23 27 32 41 49 43 49 38 34 35 31 22 20 17 24 25 44 50 48 43 37 33 20 18 29 21 14 15 19 18 16 17 17 20 18
10 13 15 15 13 14 12 11 13 16 18 18 20 22 21 18 16 17 12 13 13 19 30 35 33 34 31 38 38 22 16 14 9 14 16 10 31 32 26 22 19 17 17 21 16 17 12 11 12 15 15 13 13 16
15 18 20 19 16 15 15 14 16 20 21 17 15 15 15 16 11 8 10 11 15 15 22 24 27 29 30 25 26 13 19 10 8 6 9 8 13 4 7 15 19 20 17 19 20 20 18 17 15 12 11 12 12 13
15 13 11 12 13 15 17 17 16 18 18 15 16 14 7 8 12 9 12 13 12 19 17 25 21 13 11 21 14 10 10 13 7 7 10 23 17 14 7 6 13 22 28 29 26 24 20 19 20 20 19 17 15 13
11 9 10 11 13 18 16 14 14 13 12 17 14 13 8 8 11 22 23 20 24 32 36 31 19 8 22 14 13 7 9 4 6 10 19 18 16 14 12 14 14 18 23 23 23 22 19 19 20 19 17 16 15 15
10 11 12 13 14 13 13 13 10 10 12 18 14 8 14 20 24 24 24 26 20 18 24 29 22 22 27 13 11 9 6 7 7 9 13 11 11 14 14 12 14 17 21 21 19 17 14 13 15 15 13 11 11 11
14 13 13 12 16 14 14 13 11 11 14 14 13 18 22 23 22 21 25 31 31 22 15 15 12 13 13 7 7 9 6 7 7 6 3 9 7 10 12 10 10 15 18 16 16 15 13 12 12 11 10 9 9 9
9 7 6 7 15 11 14 14 14 16 15 18 22 16 16 24 26 25 26 30 29 25 23 8 8 10 4 7 10 9 13 15 14 14 14 16 8 11 9 7 11 15 16 16 16 15 14 13 11 11 10 9 8 8
10 13 11 8 10 13 14 14 16 16 17 20 22 20 24 25 21 22 26 27 27 25 19 15 16 16 8 3 5 12 9 13 16 19 16 10 8 9 10 9 12 15 16 17 17 15 15 14 14 13 12 10 10 10
9 8 5 6 8 9 13 18 18 22 24 24 25 21 18 15 14 21 24 24 23 17 17 11 8 9 8 9 6 8 10 16 16 5 6 10 11 13 14 16 17 19 20 20 19 18 17 16 14 12 11 11 11 12
6 4 5 6 6 6 9 11 15 17 16 16 13 10 13 11 13 17 19 21 14 12 11 7 12 14 8 9 8 11 11 7 6 5 11 12 16 18 20 20 20 20 20 20 19 16 13 12 12 13 12 12 12 9
6 8 6 6 6 9 14 14 13 10 9 10 10 9 9 8 9 11 14 11 10 12 13 14 15 11 7 9 13 16 7 3 4 6 12 18 21 21 22 22 21 20 18 16 15 16 16 15 15 15 15 15 16 17
8 9 8 8 8 14 16 15 14 12 13 16 13 10 8 7 9 11 11 10 10 11 11 9 7 5 4 6 5 2 5 7 7 10 13 16 20 22 22 21 19 19 20 21 21 21 19 19 19 18 17 14 14 12
10 10 9 10 12 7 7 7 9 9 8 11 11 10 6 6 7 8 6 5 3 4 4 3 2 4 6 5 4 5 7 7 9 12 16 17 19 20 22 22 22 21 19 20 21 19 17 16 16 14 12 9 8 7
10 9 8 5 5 6 10 10 10 10 9 10 9 6 5 5 6 5 2 3 5 8 9 9 9 8 6 4 3 6 8 9 12 17 21 23 24 25 27 29 30 27 21 18 16 14 12 11 11 10 9 8 7 6
6 6 5 6 6 6 8 9 8 7 8 7 5 3 3 2 2 3 7 8 8 8 8 8 7 6 4 4 6 8 11 14 16 21 27 30 31 31 26 24 23 21 19 16 15 13 12 12 11 10 8 8 7 7
3 3 3 5 6 6 5 5 4 3 5 3 3 4 6 5 2 4 10 10 9 8 7 6 6 6 5 5 7 10 14 17 21 26 28 29 26 21 18 17 16 17 18 18 14 12 10 11 11 11 9 8 7 7
4 4 4 4 4 3 3 3 2 2 3 2 4 7 4 3 3 10 13 11 9 8 6 5 6 7 7 7 8 9 12 16 19 24 27 24 20 20 19 15 13 12 14 16 15 14 11 10 10 10 8 7 6 6
5 4 3 3 3 3 4 3 2 2 2 2 4 3 1 3 8 16 13 11 9 8 7 6 5 6 7 7 8 10 13 16 17 19 23 25 21 17 16 16 14 12 13 15 15 13 12 10 9 7 6 5 4 4
4 4 2 1 2 3 2 2 3 2 1 1 3 3 3 9 17 15 12 10 9 8 7 6 7 8 10 11 13 15 17 19 21 21 19 17 18 18 18 17 15 14 14 12 12 12 10 9 7 5 4 3 2 2
6 6 5 2 3 3 1 1 2 4 5 4 3 5 13 18 17 14 12 11 10 10 9 8 8 9 10 12 15 16 16 16 17 18 14 12 13 16 19 19 18 17 16 14 11 9 8 6 5 3 2 1 1 3
8 7 6 5 3 2 1 1 3 3 7 10 12 13 13 15 14 12 11 10 9 8 8 7 7 7 8 9 11 13 12 12 11 15 16 14 15 17 18 19 17 15 14 12 10 8 6 5 4 3 1 2 4 7
7 7 6 5 4 3 3 2 2 4 5 5 6 7 9 9 9 10 9 9 9 8 6 6 5 5 4 5 6 8 10 11 13 17 19 18 17 17 17 17 16 14 12 10 8 6 5 4 4 3 3 5 7 9
8 7 6 5 5 5 5 5 5 4 4 4 4 5 6 7 7 8 8 8 8 8 7 7 7 7 7 6 6 8 11 15 17 20 22 22 19 18 17 16 14 12 10 8 6 6 5 5 4 4 5 7 9 11
Wind_Direction
286 284 279 274 265 256 250 251 256 259 259 259 262 266 274 272 271 272 271 278 278 277 277 271 266 266 271 272 269 268 273 269 266 261 257 259 248 246 255 259 257 251 249 246 247 246 268 276 302 232 275 292 319 322
283 280 277 271 260 255 257 257 258 260 259 259 261 266 270 272 265 267 268 271 272 271 268 275 265 268 264 268 270 267 262 249 238 243 254 250 248 246 252 252 263 247 247 246 241 244 257 275 284 297 306 298 316 320
280 275 267 261 264 266 269 264 259 260 261 259 264 270 270 266 263 264 265 270 274 281 283 278 278 256 254 287 274 282 272 268 259 257 262 266 270 272 251 252 259 258 260 250 256 255 258 262 271 285 302 309 288 309
274 268 255 252 257 261 265 267 268 266 262 261 262 265 267 270 265 264 265 265 270 276 280 277 272 259 269 267 275 282 272 284 270 269 263 254 260 257 258 244 252 261 268 265 269 268 264 261 267 275 291 294 288 299
265 260 258 259 263 267 267 265 266 265 259 263 259 260 265 267 267 267 271 272 275 272 275 279 274 274 277 281 275 259 272 280 270 259 257 251 256 263 262 263 263 263 265 261 277 278 264 269 282 279 291 279 275 275
255 257 261 265 272 273 269 264 263 268 265 261 265 266 265 264 268 270 276 275 283 281 275 280 285 281 281 270 268 271 265 276 276 251 248 250 254 257 264 261 260 268 269 271 273 266 268 258 260 278 275 258 262 259
259 258 261 267 265 273 276 270 269 268 265 266 266 267 268 259 256 259 267 277 283 284 275 275 297 281 281 276 272 270 275 269 269 265 245 247 252 261 249 250 255 268 267 273 277 262 233 236 265 261 258 268 267 260
261 259 263 262 269 278 281 274 269 258 260 263 265 267 267 263 257 258 271 277 279 275 274 275 278 280 280 286 290 288 302 277 264 253 251 247 256 246 253 259 258 255 263 263 245 222 225 259 259 256 256 262 243 246
258 261 254 256 267 272 280 276 270 263 266 268 264 265 265 260 263 272 273 270 263 258 262 266 266 275 275 277 290 304 296 293 267 248 242 241 238 230 250 262 266 266 275 260 199 204 249 259 263 248 244 257 223 226
256 240 242 251 271 262 274 271 284 287 281 278 276 271 271 275 277 277 274 267 264 262 258 261 263 261 269 276 283 290 292 283 256 246 243 234 243 251 255 261 266 265 246 210 220 235 253 258 256 253 243 239 223 233
250 253 257 258 270 257 270 274 283 281 285 284 280 267 268 275 271 274 271 263 260 249 260 268 269 272 272 269 273 265 267 282 254 244 210 232 253 259 261 260 247 231 211 196 221 245 231 233 244 241 235 230 228 238
273 270 262 259 263 252 260 274 285 286 288 282 277 265 267 259 253 244 242 249 247 261 267 281 279 277 276 266 245 251 248 244 256 208 192 245 275 323 236 224 218 209 214 212 213 231 244 243 243 245 230 226 232 237
284 276 255 243 246 251 262 276 274 280 271 268 259 249 241 230 225 230 232 234 240 257 269 293 316 292 304 265 221 211 233 219 215 214 238 260 269 287 241 235 217 217 222 229 237 240 241 246 244 247 248 246 244 244
284 253 235 245 263 276 272 261 267 278 260 241 221 208 212 224 236 243 248 253 262 274 282 296 301 283 302 238 215 227 236 222 221 234 255 285 280 258 244 237 224 217 221 226 225 227 242 242 239 243 245 246 238 240
259 260 271 278 281 266 261 256 265 267 254 239 218 216 237 250 255 258 274 308 318 305 286 288 295 288 285 244 203 217 205 218 228 246 272 302 294 245 243 250 232 218 213 216 219 221 227 230 224 223 225 226 227 233
252 263 295 279 257 254 256 259 253 250 235 244 234 233 250 262 277 278 276 284 304 317 301 278 274 279 247 228 211 197 219 224 254 290 295 313 280 253 253 262 215 204 199 196 197 200 201 196 193 195 201 209 214 217
281 323 310 289 235 238 254 255 263 261 249 252 262 275 282 278 279 286 273 284 297 312 313 302 271 237 226 215 214 213 237 258 268 279 279 290 259 248 246 219 189 177 174 174 174 179 181 183 185 189 191 191 181 172
301 297 273 278 255 243 258 247 253 262 259 265 266 277 285 281 268 268 269 279 293 308 299 285 277 283 292 240 212 235 260 281 275 270 256 255 226 210 210 182 165 156 154 156 156 159 158 155 152 151 146 149 149 151
289 299 297 261 258 260 255 262 264 269 273 275 279 280 270 268 255 261 270 281 297 293 285 286 263 262 271 292 248 239 254 283 294 242 237 193 179 172 169 160 153 147 144 145 145 148 149 146 142 143 146 150 151 159
298 298 310 283 274 271 273 275 289 280 288 286 286 272 273 271 257 263 275 287 286 271 269 257 266 282 320 352 339 321 284 278 226 179 164 153 150 151 152 149 148 147 148 148 147 146 148 152 155 153 154 155 156 171
258 303 301 283 273 274 284 288 280 290 315 312 322 320 308 284 274 278 284 274 267 264 262 268 270 274 294 317 320 329 298 158 159 182 171 153 147 151 149 146 148 149 152 151 156 151 144 144 138 133 131 136 137 129
258 285 282 282 281 281 286 277 275 290 297 302 304 310 299 286 283 286 297 295 275 265 261 264 266 279 334 349 359 54 135 145 158 168 161 149 140 141 140 140 141 138 135 132 131 129 133 133 131 129 125 121 120 125
242 272 275 283 284 272 274 290 299 304 294 299 307 317 296 280 282 288 285 302 259 227 196 182 146 81 48 50 86 134 151 152 167 165 159 155 151 147 145 143 146 146 143 138 132 128 128 130 129 127 125 126 133 144
250 263 277 265 247 259 283 290 297 293 294 300 297 284 265 267 280 269 249 156 123 112 103 99 91 87 89 88 111 143 152 156 167 166 159 154 153 153 147 136 123 113 113 117 121 125 129 130 128 128 134 140 134 123
233 269 259 265 262 271 285 289 288 284 301 312 277 222 190 237 247 171 152 135 119 117 111 106 107 108 108 122 142 153 157 158 162 163 151 140 127 117 117 125 127 128 128 126 125 124 123 122 120 118 117 115 115 107
242 254 259 280 288 287 279 273 279 290 319 287 221 191 169 157 155 155 151 136 133 129 123 127 136 137 148 159 159 164 170 171 165 153 139 126 123 129 132 133 133 137 129 122 117 116 121 121 121 117 114 110 106 103
248 263 276 294 320 330 322 306 286 269 266 312 168 166 194 199 168 163 152 144 139 136 137 143 149 143 156 168 172 176 176 179 174 158 144 132 137 137 134 134 135 139 133 130 129 125 124 123 122 119 116 110 100 88
254 257 244 280 299 322 339 328 297 269 254 220 179 211 223 213 166 159 153 148 143 141 141 145 146 146 155 168 174 175 176 172 167 170 155 141 137 140 138 136 140 146 145 141 138 137 133 128 123 119 111 101 86 64
236 211 196 30 346 310 319 31 46 47 68 195 210 213 205 158 155 152 148 144 139 133 129 134 142 151 152 156 159 163 165 169 167 155 137 136 143 146 145 144 148 145 140 140 140 140 138 134 130 121 111 99 81 23
219 210 214 284 347 6 56 74 41 42 46 73 123 164 154 153 153 152 149 147 142 135 130 128 128 130 139 146 141 137 135 134 137 132 133 154 162 163 156 151 152 149 146 146 147 146 146 141 135 130 132 149 292 321
215 220 233 246 268 320 27 88 83 80 67 81 103 127 146 152 155 155 155 156 154 151 144 130 115 106 105 114 126 127 132 139 149 143 147 160 166 166 161 159 158 158 156 155 156 153 152 155 167 184 221 298 319 329
218 220 231 238 244 236 212 179 135 115 117 126 131 140 155 165 173 174 176 176 177 177 174 168 161 152 141 142 146 146 151 160 169 166 162 163 168 170 167 164 164 164 162 162 164 168 179 193 204 226 274 306 324 331
221 225 229 226 221 217 212 205 204 200 183 169 165 173 182 186 187 187 187 189 192 194 198 202 200 195 191 183 173 171 173 175 177 176 170 167 171 175 174 174 175 174 172 176 189 199 207 221 236 264 298 316 323 325